GW0055 Weather Reports


time (UTC)temp
F
wind
direction
speed
knots
gust
knots
rain 1hr
in
rain 24hr
in
rain mn
in
humidity
%
barometer
mb
20260906145537 74 90 4.3 8.7 0.00 0.00 0.00 83 1019.8
20260906145037 74 102 4.3 9.6 0.00 0.00 0.00 83 1019.8
20260906144550 73 70 3.5 9.6 0.00 0.00 0.00 84 1019.8
20260906144037 73 70 4.3 10.4 0.00 0.00 0.00 84 1019.7
20260906143536 73 90 6.1 10.4 0.00 0.00 0.00 84 1019.8
20260906143059 73 108 4.3 8.7 0.00 0.00 0.00 85 1019.6
20260906142535 73 63 3.5 8.7 0.00 0.00 0.00 85 1019.6
20260906142036 73 85 4.3 9.6 0.00 0.00 0.00 86 1019.6
20260906141609 72 61 3.5 9.6 0.00 0.00 0.00 86 1019.6
20260906141035 72 90 5.2 9.6 0.00 0.00 0.00 86 1019.7
20260906140536 72 66 3.5 7.8 0.00 0.00 0.00 87 1019.7
20260906140052 72 53 4.3 9.6 0.00 0.00 0.00 87 1019.6
20260906135536 71 82 5.2 8.7 0.00 0.00 0.00 87 1019.6
20260906135036 71 82 4.3 8.7 0.00 0.00 0.00 88 1019.7
20260906134549 71 70 5.2 10.4 0.00 0.00 0.00 88 1019.5
20260906134036 71 51 6.1 10.4 0.00 0.00 0.00 88 1019.5
20260906133536 70 53 6.1 9.6 0.00 0.00 0.00 88 1019.6
20260906133105 70 55 5.2 11.3 0.00 0.00 0.00 89 1019.4
20260906132536 70 53 5.2 11.3 0.00 0.00 0.00 89 1019.5
20260906132038 70 53 7.8 11.3 0.00 0.00 0.00 89 1019.4
20260906131606 70 62 4.3 8.7 0.00 0.00 0.00 89 1019.5
20260906131036 69 70 5.2 9.6 0.00 0.00 0.00 90 1019.4
20260906130538 69 45 6.1 9.6 0.00 0.00 0.00 90 1019.5
20260906130058 69 61 2.6 7.0 0.00 0.00 0.00 90 1019.6
20260906125536 69 13 3.5 7.0 0.00 0.00 0.00 90 1019.7
20260906125038 69 19 4.3 8.7 0.00 0.00 0.00 90 1019.7
20260906124606 69 31 4.3 8.7 0.00 0.00 0.00 90 1019.6
20260906124040 69 14 6.1 7.8 0.00 0.00 0.00 90 1019.6
20260906123536 69 23 5.2 7.8 0.00 0.00 0.00 90 1019.5
20260906123105 69 22 5.2 7.8 0.00 0.00 0.00 90 1019.3
20260906122538 69 27 5.2 7.8 0.00 0.00 0.00 90 1019.4
20260906122038 69 20 4.3 6.1 0.00 0.00 0.00 90 1019.3
20260906121552 69 2 4.3 6.1 0.00 0.00 0.00 90 1019.2
20260906121035 69 14 4.3 6.1 0.00 0.00 0.00 90 1019.3
20260906120538 69 7 3.5 5.2 0.00 0.00 0.00 89 1019.2
20260906120051 69 34 1.7 3.5 0.00 0.00 0.00 89 1019.1
20260906115538 69 2 1.7 3.5 0.00 0.00 0.00 89 1019.0
20260906115035 69 10 2.6 5.2 0.00 0.00 0.00 89 1019.1
20260906114550 69 20 1.7 7.0 0.00 0.00 0.00 89 1018.9
20260906114036 69 28 2.6 7.0 0.00 0.00 0.00 89 1018.8
20260906113535 69 32 2.6 6.1 0.00 0.00 0.00 89 1018.7
20260906113055 69 38 2.6 4.3 0.00 0.00 0.00 89 1018.6
20260906112535 69 24 1.7 4.3 0.00 0.00 0.00 89 1018.6
20260906112039 69 28 2.6 4.3 0.00 0.00 0.00 89 1018.6
20260906111551 69 32 2.6 4.3 0.00 0.00 0.00 89 1018.6
20260906111035 69 17 2.6 5.2 0.00 0.00 0.00 89 1018.6
20260906110535 69 22 2.6 6.1 0.00 0.00 0.00 89 1018.5
20260906110057 69 47 3.5 7.0 0.00 0.00 0.00 89 1018.5
20260906105536 69 47 2.6 7.0 0.00 0.00 0.00 89 1018.3
20260906105034 69 39 2.6 5.2 0.00 0.00 0.00 89 1018.2
20260906104557 69 39 2.6 7.8 0.00 0.00 0.00 89 1018.1
20260906104036 69 20 3.5 7.8 0.00 0.00 0.00 89 1018.0
20260906103539 69 53 2.6 7.8 0.00 0.00 0.00 89 1017.8
20260906103054 69 44 3.5 7.8 0.00 0.00 0.00 89 1017.8
20260906102535 69 48 3.5 7.0 0.00 0.00 0.00 89 1017.8
20260906102035 70 36 3.5 7.8 0.00 0.00 0.00 89 1017.8
20260906101553 70 34 4.3 7.8 0.00 0.00 0.00 89 1017.7
20260906101035 70 48 3.5 7.0 0.00 0.00 0.00 89 1017.7
20260906100535 70 49 3.5 7.0 0.00 0.00 0.00 88 1017.6
20260906100047 70 55 3.5 7.0 0.00 0.00 0.00 89 1017.7
20260906095534 70 39 2.6 6.1 0.00 0.00 0.00 88 1017.7
20260906095036 70 47 3.5 6.1 0.00 0.00 0.00 88 1017.8
20260906094603 70 38 2.6 4.3 0.00 0.00 0.00 88 1017.8
20260906094034 70 26 2.6 4.3 0.00 0.00 0.00 88 1017.8
20260906093535 70 41 1.7 4.3 0.00 0.00 0.00 88 1017.7
20260906093056 70 58 2.6 4.3 0.00 0.00 0.00 88 1017.8
20260906092535 70 47 2.6 5.2 0.00 0.00 0.00 88 1017.7
20260906092035 70 57 2.6 5.2 0.00 0.00 0.00 88 1017.8
20260906091551 70 69 1.7 3.5 0.00 0.00 0.00 88 1017.8
20260906091035 71 33 1.7 4.3 0.00 0.00 0.00 88 1017.9
20260906090538 71 43 1.7 3.5 0.00 0.00 0.00 88 1018.0
20260906090053 71 42 1.7 4.3 0.00 0.00 0.00 88 1017.9
20260906085538 71 42 0.9 4.3 0.00 0.00 0.00 88 1017.9
20260906085036 71 62 1.7 4.3 0.00 0.00 0.00 88 1017.9
20260906084558 71 45 1.7 4.3 0.00 0.00 0.00 88 1017.9
20260906084040 71 36 2.6 4.3 0.00 0.00 0.00 88 1017.9
20260906083539 71 48 2.6 4.3 0.00 0.00 0.00 88 1017.9
20260906083057 71 59 1.7 4.3 0.00 0.00 0.00 88 1017.9
20260906082538 71 59 0.9 4.3 0.00 0.00 0.00 88 1017.9
20260906082039 71 78 2.6 4.3 0.00 0.00 0.00 88 1018.0
20260906081602 71 85 2.6 7.0 0.00 0.00 0.00 88 1017.9
20260906081035 71 23 1.7 7.0 0.00 0.00 0.00 88 1018.1
20260906080538 71 34 2.6 7.0 0.00 0.00 0.00 88 1018.1
20260906080059 71 61 1.7 7.0 0.00 0.00 0.00 88 1018.0
20260906075534 71 64 3.5 7.8 0.00 0.00 0.00 88 1018.0
20260906075037 71 45 3.5 7.8 0.00 0.00 0.00 88 1018.0
20260906074556 72 47 3.5 8.7 0.00 0.00 0.00 88 1017.9
20260906074036 72 90 3.5 8.7 0.00 0.00 0.00 87 1017.9
20260906073540 72 66 3.5 8.7 0.00 0.00 0.00 87 1017.9
20260906073057 72 41 4.3 7.8 0.00 0.00 0.00 87 1018.0
20260906072537 72 37 4.3 8.7 0.00 0.00 0.00 87 1018.0
20260906072040 72 46 5.2 8.7 0.00 0.00 0.00 87 1018.0
20260906071552 72 57 5.2 7.8 0.00 0.00 0.00 88 1018.0
20260906071038 72 47 2.6 7.8 0.00 0.00 0.00 88 1018.0
20260906070537 72 47 4.3 7.8 0.00 0.00 0.00 88 1018.0
20260906070057 73 66 4.3 7.0 0.00 0.00 0.00 87 1017.9
20260906065537 73 53 2.6 6.1 0.00 0.00 0.00 87 1018.2
20260906065037 73 36 3.5 6.1 0.00 0.00 0.00 87 1018.1
20260906064554 73 41 3.5 7.0 0.00 0.00 0.00 87 1018.1
20260906064037 73 42 3.5 7.0 0.00 0.00 0.00 87 1018.1
20260906063540 73 55 3.5 7.8 0.00 0.00 0.00 87 1018.0
20260906063057 73 59 3.5 7.8 0.00 0.00 0.00 87 1018.0
20260906062537 73 79 3.5 7.8 0.00 0.00 0.00 86 1018.1
20260906062035 73 68 3.5 7.8 0.00 0.00 0.00 86 1018.2
20260906061556 73 61 4.3 9.6 0.00 0.00 0.00 86 1018.1
20260906061036 74 63 5.2 9.6 0.00 0.00 0.00 86 1018.2
20260906060536 74 65 4.3 7.8 0.00 0.00 0.00 86 1018.2
20260906060127 74 57 5.2 7.8 0.00 0.00 0.00 86 1018.3
20260906055537 74 37 4.3 8.7 0.00 0.00 0.00 86 1018.1
20260906055037 74 49 5.2 8.7 0.00 0.00 0.00 86 1018.1
20260906054603 74 51 3.5 7.8 0.00 0.00 0.00 86 1018.1
20260906054037 74 43 4.3 8.7 0.00 0.00 0.00 86 1018.0
20260906053536 74 47 3.5 8.7 0.00 0.00 0.00 86 1018.0
20260906053057 74 26 4.3 8.7 0.00 0.00 0.00 86 1018.0
20260906052538 74 43 3.5 6.1 0.00 0.00 0.00 86 1017.9
20260906052038 74 33 3.5 6.1 0.00 0.00 0.00 86 1017.9
20260906051558 74 36 2.6 6.1 0.00 0.00 0.00 86 1017.8
20260906051036 74 36 3.5 7.0 0.00 0.00 0.00 86 1017.8
20260906050536 74 32 3.5 7.0 0.00 0.00 0.00 86 1017.6
20260906050052 74 38 2.6 5.2 0.00 0.00 0.00 86 1017.6
20260906045539 74 25 1.7 5.2 0.00 0.00 0.00 86 1017.5
20260906045037 74 41 1.7 5.2 0.00 0.00 0.00 86 1017.4
20260906044549 74 43 2.6 5.2 0.00 0.00 0.00 86 1017.3
20260906044036 74 34 2.6 6.1 0.00 0.00 0.00 86 1017.3
20260906043536 74 32 2.6 6.1 0.00 0.00 0.00 85 1017.4
20260906043054 75 36 2.6 6.1 0.00 0.00 0.00 85 1017.4
20260906042536 75 31 2.6 6.1 0.00 0.00 0.00 85 1017.4
20260906042038 75 39 2.6 6.1 0.00 0.00 0.00 85 1017.5
20260906041553 75 35 2.6 4.3 0.00 0.00 0.00 85 1017.5
20260906041038 75 37 1.7 4.3 0.00 0.00 0.00 85 1017.5
20260906040538 75 38 2.6 5.2 0.00 0.00 0.00 85 1017.3
20260906040050 75 61 2.6 7.0 0.00 0.00 0.00 85 1017.2
20260906035537 75 34 3.5 7.0 0.00 0.00 0.00 85 1016.9
20260906035039 75 40 3.5 7.0 0.00 0.00 0.00 85 1016.7
20260906034604 75 47 3.5 6.1 0.00 0.00 0.00 85 1016.7
20260906034038 75 64 3.5 6.1 0.00 0.00 0.00 85 1016.8
20260906033534 75 59 2.6 7.0 0.00 0.00 0.00 85 1016.7
20260906033055 75 43 2.6 7.0 0.00 0.00 0.00 84 1016.7
20260906032538 76 73 3.5 7.0 0.00 0.00 0.00 84 1016.6
20260906032035 76 26 3.5 7.0 0.00 0.00 0.00 84 1016.7
20260906031554 76 57 4.3 7.0 0.00 0.00 0.00 84 1016.7
20260906031038 76 70 3.5 7.0 0.00 0.00 0.00 84 1016.8
20260906030535 76 74 2.6 7.0 0.00 0.00 0.00 84 1016.8
20260906030056 76 58 2.6 6.1 0.00 0.00 0.00 84 1016.8
20260906025534 76 35 3.5 7.8 0.00 0.00 0.00 84 1016.8
20260906025040 77 51 5.2 9.6 0.00 0.00 0.00 84 1016.9
20260906024557 77 36 5.2 9.6 0.00 0.00 0.00 84 1016.8
20260906024038 77 59 4.3 7.8 0.00 0.00 0.00 84 1017.0
20260906023538 77 49 3.5 7.8 0.00 0.00 0.00 84 1016.7
20260906023048 77 68 4.3 8.7 0.00 0.00 0.00 83 1016.8
20260906022537 78 49 5.2 8.7 0.00 0.00 0.00 83 1016.7
20260906022038 78 43 5.2 10.4 0.00 0.00 0.00 83 1016.7
20260906021556 78 46 5.2 10.4 0.00 0.00 0.00 82 1016.6
20260906021119 78 50 6.1 9.6 0.00 0.00 0.00 82 1016.5
20260906020535 78 30 6.1 9.6 0.00 0.00 0.00 82 1016.4
20260906020056 79 35 4.3 9.6 0.00 0.00 0.00 82 1016.3
20260906015535 79 53 6.1 9.6 0.00 0.00 0.00 82 1016.3
20260906015037 79 34 6.1 9.6 0.00 0.00 0.00 82 1016.3
20260906014554 79 36 5.2 11.3 0.00 0.00 0.00 82 1016.3
20260906014034 79 24 7.0 11.3 0.00 0.00 0.00 81 1016.1
20260906013541 80 30 7.8 11.3 0.00 0.00 0.00 81 1016.1
20260906013058 80 32 7.0 9.6 0.00 0.00 0.00 81 1016.1
20260906012537 80 16 6.1 9.6 0.00 0.00 0.00 81 1016.1
20260906012038 81 31 7.0 9.6 0.00 0.00 0.00 80 1016.1
20260906011555 81 32 7.0 10.4 0.00 0.00 0.00 80 1016.1
20260906011035 81 42 7.0 10.4 0.00 0.00 0.00 79 1015.9
20260906010539 82 37 5.2 9.6 0.00 0.00 0.00 79 1015.8
20260906010137 82 28 5.2 9.6 0.00 0.00 0.00 79 1015.8
20260906005534 82 36 6.1 9.6 0.00 0.00 0.00 78 1015.7
20260906005040 82 28 6.1 8.7 0.00 0.00 0.00 78 1015.7
20260906004608 83 39 5.2 8.7 0.00 0.00 0.00 78 1015.7
20260906004037 83 11 4.3 7.8 0.00 0.00 0.00 78 1015.7
20260906003538 83 27 5.2 7.8 0.00 0.00 0.00 77 1015.6
20260906003058 84 22 5.2 7.8 0.00 0.00 0.00 77 1015.7
20260906002539 84 34 4.3 9.6 0.00 0.00 0.00 76 1015.7
20260906002036 84 34 7.0 9.6 0.00 0.00 0.00 76 1015.6
20260906001603 84 2 4.3 8.7 0.00 0.00 0.00 76 1015.7
20260906001038 85 16 6.1 11.3 0.00 0.00 0.00 76 1015.7
20260906000535 85 28 7.8 11.3 0.00 0.00 0.00 76 1015.7
20260906000057 85 35 7.0 11.3 0.00 0.00 0.00 76 1015.7
20260905235538 86 18 6.1 12.2 0.00 0.00 0.00 75 1015.6
20260905235035 86 7 7.8 12.2 0.00 0.00 0.00 75 1015.5
20260905234551 87 32 8.7 12.2 0.00 0.00 0.00 74 1015.5
20260905234038 87 18 7.0 11.3 0.00 0.00 0.00 73 1015.4
20260905233536 88 15 4.3 7.8 0.00 0.00 0.00 73 1015.4
20260905233056 88 22 5.2 7.8 0.00 0.00 0.00 73 1015.4
20260905232535 88 15 4.3 7.0 0.00 0.00 0.00 72 1015.4
20260905232035 88 25 3.5 7.0 0.00 0.00 0.00 72 1015.3
20260905231556 88 30 3.5 7.8 0.00 0.00 0.00 71 1015.2
20260905231036 89 28 5.2 10.4 0.00 0.00 0.00 70 1015.1
20260905230537 89 22 6.1 10.4 0.00 0.00 0.00 69 1015.2
20260905230048 90 12 7.0 10.4 0.00 0.00 0.00 68 1015.2
20260905225538 90 10 6.1 8.7 0.00 0.00 0.00 68 1015.1
20260905225035 91 22 5.2 7.8 0.00 0.00 0.00 67 1015.1
20260905224545 91 16 5.2 8.7 0.00 0.00 0.00 67 1015.1
20260905224036 91 45 3.5 8.7 0.00 0.00 0.00 68 1015.1
20260905223536 91 41 5.2 8.7 0.00 0.00 0.00 67 1015.1
20260905223056 91 29 4.3 7.0 0.00 0.00 0.00 66 1015.1
20260905222536 91 39 3.5 7.0 0.00 0.00 0.00 67 1015.1
20260905222036 91 9 5.2 7.0 0.00 0.00 0.00 67 1015.0
20260905221554 92 11 3.5 6.1 0.00 0.00 0.00 65 1015.1
20260905221036 92 21 2.6 7.8 0.00 0.00 0.00 65 1015.1
20260905220536 92 27 5.2 7.8 0.00 0.00 0.00 65 1015.2
20260905220046 92 326 4.3 7.0 0.00 0.00 0.00 66 1015.2
20260905215536 91 340 2.6 7.8 0.00 0.00 0.00 67 1015.1
20260905215036 91 7 3.5 7.8 0.00 0.00 0.00 65 1015.1
20260905214553 91 16 5.2 7.8 0.00 0.00 0.00 65 1015.1
20260905214036 91 342 4.3 7.8 0.00 0.00 0.00 66 1015.0
20260905213536 91 357 5.2 7.8 0.00 0.00 0.00 65 1015.1
20260905213050 91 347 3.5 8.7 0.00 0.00 0.00 65 1015.1
20260905212540 91 347 6.1 8.7 0.00 0.00 0.00 65 1015.2
20260905212036 91 7 5.2 8.7 0.00 0.00 0.00 68 1015.2
20260905211601 91 20 7.0 8.7 0.00 0.00 0.00 67 1015.2
20260905211036 91 352 6.1 9.6 0.00 0.00 0.00 67 1015.4
20260905210535 91 345 5.2 9.6 0.00 0.00 0.00 67 1015.4
20260905210110 91 349 7.8 9.6 0.00 0.00 0.00 67 1015.4
20260905205536 91 28 6.1 9.6 0.00 0.00 0.00 67 1015.5
20260905205035 91 354 6.1 9.6 0.00 0.00 0.00 67 1015.6
20260905204552 91 21 4.3 9.6 0.00 0.00 0.00 68 1015.6
20260905204036 91 9 6.1 9.6 0.00 0.00 0.00 69 1015.6
20260905203536 91 42 4.3 9.6 0.00 0.00 0.00 69 1015.6
20260905203048 91 11 6.1 9.6 0.00 0.00 0.00 69 1015.6
20260905202535 91 358 4.3 8.7 0.00 0.00 0.00 69 1015.6
20260905202036 91 36 6.1 9.6 0.00 0.00 0.00 69 1015.5
20260905201556 91 357 7.0 10.4 0.00 0.00 0.00 68 1015.6
20260905201035 91 11 7.0 9.6 0.00 0.00 0.00 67 1015.6
20260905200535 92 18 5.2 8.7 0.00 0.00 0.00 68 1015.6
20260905200118 92 352 4.3 7.0 0.00 0.00 0.00 66 1015.6
20260905195535 92 22 3.5 7.0 0.00 0.00 0.00 66 1015.7
20260905195037 91 350 3.5 7.0 0.00 0.00 0.00 66 1015.8
20260905194552 91 336 3.5 8.7 0.00 0.00 0.00 66 1015.7
20260905194036 91 354 4.3 8.7 0.00 0.00 0.00 67 1015.8
20260905193535 91 346 7.0 8.7 0.00 0.00 0.00 67 1015.9
20260905193101 92 343 4.3 8.7 0.00 0.00 0.00 68 1015.9
20260905192536 92 329 5.2 8.7 0.00 0.00 0.00 65 1015.9
20260905192037 92 331 6.1 8.7 0.00 0.00 0.00 66 1015.8
20260905191556 92 324 4.3 7.8 0.00 0.00 0.00 67 1015.9
20260905191036 92 330 2.6 7.0 0.00 0.00 0.00 65 1015.9
20260905190535 92 17 4.3 7.0 0.00 0.00 0.00 65 1015.9
20260905190054 92 353 5.2 7.8 0.00 0.00 0.00 65 1016.0
20260905185535 92 349 5.2 7.8 0.00 0.00 0.00 65 1015.9
20260905185036 92 338 2.6 8.7 0.00 0.00 0.00 65 1016.0
20260905184600 92 341 4.3 8.7 0.00 0.00 0.00 66 1015.9
20260905184039 92 350 3.5 8.7 0.00 0.00 0.00 65 1015.9
20260905183536 92 332 3.5 8.7 0.00 0.00 0.00 65 1015.9
20260905183057 92 9 4.3 8.7 0.00 0.00 0.00 66 1016.1
20260905182539 92 19 6.1 8.7 0.00 0.00 0.00 66 1016.1
20260905182040 92 7 3.5 8.7 0.00 0.00 0.00 66 1016.0
20260905181555 91 20 2.6 8.7 0.00 0.00 0.00 65 1016.0
20260905181035 91 337 5.2 8.7 0.00 0.00 0.00 65 1016.0
20260905180537 91 8 7.0 8.7 0.00 0.00 0.00 66 1016.1
20260905180050 91 16 3.5 7.8 0.00 0.00 0.00 66 1016.1
20260905175536 91 6 5.2 7.8 0.00 0.00 0.00 67 1016.1
20260905175037 91 18 3.5 9.6 0.00 0.00 0.00 67 1016.1
20260905174546 91 340 5.2 9.6 0.00 0.00 0.00 66 1016.2
20260905174039 91 352 7.0 9.6 0.00 0.00 0.00 66 1016.4
20260905173535 91 347 6.1 8.7 0.00 0.00 0.00 65 1016.3
20260905173055 91 19 3.5 9.6 0.00 0.00 0.00 67 1016.3
20260905172536 90 13 5.2 9.6 0.00 0.00 0.00 66 1016.4
20260905172035 90 30 5.2 9.6 0.00 0.00 0.00 67 1016.5
20260905171553 90 30 6.1 9.6 0.00 0.00 0.00 68 1016.5
20260905171037 90 34 5.2 9.6 0.00 0.00 0.00 69 1016.5
20260905170535 90 357 7.0 9.6 0.00 0.00 0.00 68 1016.6
20260905170057 90 11 5.2 7.8 0.00 0.00 0.00 67 1016.6
20260905165537 90 347 4.3 8.7 0.00 0.00 0.00 68 1016.6
20260905165035 90 342 3.5 8.7 0.00 0.00 0.00 68 1016.6
20260905164554 90 6 4.3 8.7 0.00 0.00 0.00 69 1016.6
20260905164036 90 342 3.5 8.7 0.00 0.00 0.00 69 1016.6
20260905163535 89 5 4.3 8.7 0.00 0.00 0.00 69 1016.6
20260905163053 89 21 4.3 9.6 0.00 0.00 0.00 69 1016.6
20260905162535 89 41 4.3 9.6 0.00 0.00 0.00 69 1016.6
20260905162034 89 7 6.1 9.6 0.00 0.00 0.00 68 1016.6
20260905161547 89 334 6.1 8.7 0.00 0.00 0.00 68 1016.5
20260905161036 89 11 5.2 8.7 0.00 0.00 0.00 68 1016.4
20260905160538 89 341 5.2 8.7 0.00 0.00 0.00 67 1016.4
20260905160056 89 330 6.1 8.7 0.00 0.00 0.00 66 1016.5
20260905155536 88 331 4.3 8.7 0.00 0.00 0.00 67 1016.3
20260905155035 88 14 4.3 8.7 0.00 0.00 0.00 68 1016.3
20260905154601 88 343 6.1 8.7 0.00 0.00 0.00 69 1016.3
20260905154035 87 356 6.1 9.6 0.00 0.00 0.00 70 1016.4
20260905153537 87 2 7.0 9.6 0.00 0.00 0.00 71 1016.5
20260905153052 87 1 6.1 8.7 0.00 0.00 0.00 71 1016.4
20260905152535 87 360 3.5 8.7 0.00 0.00 0.00 70 1016.3
20260905152035 87 338 6.1 8.7 0.00 0.00 0.00 70 1016.3
20260905151558 87 353 6.1 7.8 0.00 0.00 0.00 70 1016.3
20260905151035 87 331 4.3 7.0 0.00 0.00 0.00 71 1016.3
20260905150535 87 336 2.6 6.1 0.00 0.00 0.00 71 1016.2
20260905150055 87 325 3.5 7.0 0.00 0.00 0.00 71 1016.0